Regional Weather Roundup
Issued by NWS

Home | Current Version | Previous Version | Graphics & Text | Print | Product List | Glossary On
Versions: 1 2 3 4 5 6 7 8 9 10 11 12 13 14 15 16 17 18 19 20 21 22 23 24 25 26 27 28 29 30 31 32 33 34 35 36 37 38 39 40 41 42 43 44 45 46 47 48 49 50
000
ASUS45 KSLC 200010
RWRUT

UTAH REGIONAL WEATHER ROUNDUP
NATIONAL WEATHER SERVICE SALT LAKE CITY UT
500 PM MST FRI DEC 19 2014

UTZ001>011-023>025-200100-

NORTHERN UTAH

CITY           SKY/WX    TMP DP  RH WIND       PRES   REMARKS
BRIGHAM CITY   CLOUDY    42  31  64 NW3       30.11S
HILL AFB       MOCLDY    42  25  52 S12       30.09S
LOGAN          CLOUDY    40  31  70 N7        30.09F
OGDEN          CLOUDY    43  27  53 S10       30.09S
PROVO AIRPORT  NOT AVBL
SALT LAKE CITY MOCLDY    44  25  47 S10       30.09F
VERNAL         CLOUDY    30  21  69 CALM      30.21S
WENDOVER       CLOUDY    37  27  65 W3        30.10S
HEBER CITY     PTCLDY    37  21  52 S7        30.10F WCI  32
WEST JORDAN    CLOUDY    41  30  65 S16G24    30.10F

$$

UTZ012>022-026-027-200100-

SOUTHERN/CENTRAL UTAH

CITY           SKY/WX    TMP DP  RH WIND       PRES   REMARKS
BLANDING       CLOUDY    34  31  88 W3        30.27R
BRYCE CANYON   CLEAR     30  22  72 SE9       30.17S WCI  22
CEDAR CITY     CLEAR     38  28  67 S13       30.14R WCI  30
DELTA          CLEAR     42  25  52 E5        30.11F
MILFORD        CLEAR     43  28  55 S13       30.11S
MOAB/CYNLANDS  PTCLDY    37  31  78 NW5       30.20S WCI  33
PRICE          MOCLDY    29  24  82 SE3       30.19S
ST GEORGE      PTCLDY    48  34  57 W5        30.20R
KANAB          CLEAR     39  30  70 S3        30.22S

$$

REGIONAL REPORTS     COLORADO/ARIZONA

CITY           SKY/WX    TMP DP  RH WIND       PRES   REMARKS
CRAIG, CO      PTCLDY    18  15  88 CALM      30.19S
GRAND JUNCTION CLOUDY    34  29  82 NW7       30.21R WCI  28
RIFLE          MOCLDY    34  25  69 CALM      30.20S
MONTROSE       PTCLDY    36  23  59 N5        30.20R WCI  32
CORTEZ         CLEAR     35  28  75 NW9       30.18R WCI  28
PAGE, AZ       CLEAR     43  30  60 CALM      30.20S
GRAND CANYON   CLEAR     39  27  62 W3        30.20R
KINGMAN        CLEAR     50  32  50 SW8       30.17S
FLAGSTAFF      PTCLDY    37  26  64 CALM      30.19S

$$

REGIONAL REPORTS    NEVADA/IDAHO/WYOMING

CITY           SKY/WX    TMP DP  RH WIND       PRES   REMARKS
LAS VEGAS, NV  MOCLDY    53  38  56 SE5       30.12F
ELY            CLOUDY    38  26  62 W6        30.12R WCI  33
ELKO           CLOUDY    39  32  76 W6        30.10R WCI  35
POCATELLO, ID  LGT RAIN  36  33  89 S14       30.08S WCI  27
BURLEY         LGT RAIN  37  34  89 W8        30.08R WCI  31
EVANSTON, WY   CLOUDY    33  21  61 SW13      30.06F WCI  24
ROCK SPRINGS   MOCLDY    32  21  64 SW9       30.08F WCI  24
KEMMERER       CLOUDY    32  23  69 SW7       30.08S WCI  26

$$


USA.gov is the U.S. government's official web portal to all federal, state and local government web resources and services.